Rogers, AR

6:20 AM CDT on August 30, 2016 (GMT -0500)
Rogers Municipal-Carter

Weather History for KROG - October, 2012

Change the Weather History Date:

Wednesday, October 10, 2012

  Actual Average Record
Temperature  
Mean Temperature 54 °F -  
Max Temperature 64 °F 68 °F 81 °F (2010)
Min Temperature 44 °F 48 °F 30 °F (2000)
Degree Days  
Heating Degree Days 11    
Growing Degree Days 4 (Base 50)    
Moisture  
Dew Point 41 °F    
Average Humidity 61    
Maximum Humidity 94    
Minimum Humidity 32    
Precipitation  
Precipitation 0.00 in - - ()
Sea Level Pressure  
Sea Level Pressure 30.20 in    
Wind  
Wind Speed 6 mph (NE)    
Max Wind Speed 13 mph    
Max Gust Speed 16 mph    
Visibility 10 miles    
Events      
Averages and records for this station are not official NWS values.
T = Trace of Precipitation, MM = Missing Value Source: NWS Daily Summary

Daily Weather History Graph

Daily Weather History Graph

Search for Another Location

Airport or City:

Trip Planner

Search our weather history database for the weather conditions in past years. The results will help you decide how hot, cold, wet, or windy it might be!

Date:

Astronomy

Oct. 10, 2012 Rise Set
Actual Time 7:19 AM CDT 6:46 PM CDT
Civil Twilight 6:53 AM CDT 7:12 PM CDT
Nautical Twilight 6:23 AM CDT 7:41 PM CDT
Astronomical Twilight 5:54 AM CDT 8:11 PM CDT
Moon 2:05 AM CDT (10/10) 3:42 PM CDT (10/10)
Length of Visible Light 12h 18m
Length of Day
11h 26m
Waning Crescent, 27% of the Moon is Illuminated
Oct 10
Waning Crescent
Oct 15
New
Oct 21
First Quarter
Oct 29
Full
Nov 6
Last Quarter

Hourly Weather History & Observations

Time (CDT) Temp. Windchill Dew Point Humidity Pressure Visibility Wind Dir Wind Speed Gust Speed Precip Events Conditions
12:20 AM 55.4 °F - 53.6 °F 94% 30.10 in 6.0 mi NW 3.5 mph - N/A   Overcast
12:57 AM 55.4 °F - 53.6 °F 94% 30.11 in 6.0 mi NNW 5.8 mph - N/A   Overcast
1:51 AM 55.4 °F - 53.6 °F 94% 30.13 in 9.0 mi NNW 6.9 mph - N/A   Overcast
1:57 AM 55.9 °F - 53.1 °F 90% 30.12 in 9.0 mi NNW 6.9 mph - N/A   Overcast
2:03 AM 55.4 °F - 51.8 °F 88% 30.13 in 9.0 mi North 8.1 mph - N/A   Mostly Cloudy
2:15 AM 55.4 °F - 50.0 °F 82% 30.14 in 10.0 mi North 8.1 mph - N/A   Scattered Clouds
2:57 AM 53.1 °F - 46.0 °F 77% 30.15 in 10.0 mi North 8.1 mph - N/A   Partly Cloudy
3:57 AM 48.9 °F - 45.0 °F 86% 30.16 in 10.0 mi NNE 6.9 mph - N/A   Clear
6:57 AM 45.0 °F - 42.1 °F 90% 30.24 in 10.0 mi Calm Calm - N/A   Clear
7:57 AM 44.1 °F 42.5 °F 41.0 °F 89% 30.26 in 10.0 mi ENE 3.5 mph - N/A   Clear
8:57 AM 51.1 °F - 41.0 °F 68% 30.28 in 10.0 mi East 6.9 mph - N/A   Clear
9:57 AM 54.0 °F - 37.0 °F 53% 30.28 in 10.0 mi ENE 8.1 mph - N/A   Clear
10:57 AM 55.9 °F - 32.0 °F 40% 30.30 in 10.0 mi NE 8.1 mph - N/A   Clear
11:57 AM 59.0 °F - 32.0 °F 36% 30.29 in 10.0 mi North 5.8 mph - N/A   Clear
12:57 PM 61.0 °F - 30.9 °F 32% 30.27 in 10.0 mi NE 12.7 mph 16.1 mph N/A   Clear
1:57 PM 62.1 °F - 33.1 °F 34% 30.24 in 10.0 mi North 6.9 mph - N/A   Clear
2:57 PM 62.1 °F - 32.0 °F 32% 30.21 in 10.0 mi Calm Calm - N/A   Clear
3:57 PM 64.0 °F - 34.0 °F 33% 30.19 in 10.0 mi East 5.8 mph - N/A   Mostly Cloudy
5:57 PM 62.1 °F - 35.1 °F 37% 30.18 in 10.0 mi ESE 4.6 mph - N/A   Mostly Cloudy
6:57 PM 60.1 °F - 35.1 °F 39% 30.18 in 10.0 mi East 6.9 mph - N/A   Overcast
7:57 PM 59.0 °F - 35.1 °F 41% 30.18 in 10.0 mi East 5.8 mph - N/A   Overcast
8:57 PM 57.9 °F - 37.0 °F 46% 30.18 in 10.0 mi ESE 6.9 mph - N/A   Overcast
9:57 PM 59.0 °F - 37.0 °F 44% 30.18 in 10.0 mi ESE 6.9 mph - N/A   Overcast
10:57 PM 57.9 °F - 37.9 °F 47% 30.18 in 10.0 mi ESE 8.1 mph - N/A   Overcast